When you browse on this site, cookies collect data to enhance your experience and personalize the content and advertising you see.
Visit our Privacy Policy to learn more. By continuing to use the site, you agree to this use of cookies and data.
  • In Schweiz
  • Länderverzeichnis
  • Für 7 Tage
  • Wassertemperatur
  • Wetterkarte
  • Widgets
  • user-avatar
    Anmelden

    Stündliche Wetter Maracay

    Heute, 22 November, Freitag

    Zeit Temperatur Niederschläge Wind Luftdruck Luftfeuchtigkeit
    00:00 +23°C° 0 mm 1 m/S 710 mmHg 92%
    01:00 +23°C° 0 mm 1 m/S 709 mmHg 92%
    02:00 +23°C° 0 mm 1 m/S 709 mmHg 92%
    03:00 +23°C° 0 mm 1 m/S 709 mmHg 92%
    04:00 +23°C° 0 mm 1 m/S 709 mmHg 92%
    05:00 +23°C° 0 mm 1 m/S 710 mmHg 90%
    06:00 +24°C° 0 mm 1 m/S 710 mmHg 89%
    07:00 +25°C° 0 mm 1 m/S 711 mmHg 86%
    08:00 +26°C° 0.5 mm 1 m/S 711 mmHg 81%
    09:00 +27°C° 0.5 mm 1 m/S 711 mmHg 76%
    10:00 +29°C° 0.5 mm 1 m/S 712 mmHg 71%
    11:00 +29°C° 0.8 mm 1 m/S 711 mmHg 71%
    12:00 +29°C° 0.8 mm 1 m/S 710 mmHg 71%
    13:00 +29°C° 0.8 mm 1 m/S 710 mmHg 71%
    14:00 +28°C° 0.5 mm 1 m/S 709 mmHg 74%
    15:00 +28°C° 0.5 mm 1 m/S 709 mmHg 77%
    16:00 +27°C° 0.5 mm 1 m/S 708 mmHg 81%
    17:00 +26°C° 0.7 mm 1 m/S 709 mmHg 84%
    18:00 +25°C° 0.7 mm 1 m/S 709 mmHg 88%
    19:00 +24°C° 0.7 mm 2 m/S 710 mmHg 91%
    20:00 +23°C° 0.1 mm 1 m/S 710 mmHg 91%
    21:00 +23°C° 0.1 mm 1 m/S 710 mmHg 92%
    22:00 +23°C° 0.1 mm 1 m/S 710 mmHg 92%
    23:00 +23°C° 0 mm 1 m/S 710 mmHg 92%

    Morgen, 23 November, Samstag

    Zeit Temperatur Niederschläge Wind Luftdruck Luftfeuchtigkeit
    00:00 +23°C° 0 mm 1 m/S 710 mmHg 92%
    01:00 +22°C° 0 mm 1 m/S 709 mmHg 92%
    02:00 +22°C° 0 mm 1 m/S 709 mmHg 92%
    03:00 +22°C° 0 mm 1 m/S 709 mmHg 92%
    04:00 +22°C° 0 mm 1 m/S 709 mmHg 92%
    05:00 +23°C° 0 mm 1 m/S 710 mmHg 90%
    06:00 +24°C° 0 mm 1 m/S 710 mmHg 88%
    07:00 +24°C° 0 mm 1 m/S 711 mmHg 87%
    08:00 +26°C° 0.1 mm 1 m/S 711 mmHg 80%
    09:00 +28°C° 0.1 mm 1 m/S 711 mmHg 74%
    10:00 +29°C° 0.1 mm 1 m/S 712 mmHg 68%
    11:00 +29°C° 0.5 mm 1 m/S 711 mmHg 69%
    12:00 +29°C° 0.5 mm 1 m/S 710 mmHg 71%
    13:00 +29°C° 0.5 mm 1 m/S 710 mmHg 73%
    14:00 +28°C° 0.7 mm 2 m/S 709 mmHg 76%
    15:00 +27°C° 0.7 mm 2 m/S 709 mmHg 79%
    16:00 +27°C° 0.7 mm 2 m/S 709 mmHg 83%
    17:00 +26°C° 0.3 mm 2 m/S 709 mmHg 86%
    18:00 +25°C° 0.3 mm 2 m/S 709 mmHg 89%
    19:00 +23°C° 0.3 mm 2 m/S 710 mmHg 92%
    20:00 +23°C° 0 mm 2 m/S 710 mmHg 92%
    21:00 +23°C° 0 mm 1 m/S 710 mmHg 92%
    22:00 +23°C° 0 mm 1 m/S 710 mmHg 92%
    23:00 +23°C° 0 mm 1 m/S 710 mmHg 92%

    übermorgen, 24 November, Sonntag

    Zeit Temperatur Niederschläge Wind Luftdruck Luftfeuchtigkeit
    00:00 +23°C° 0 mm 1 m/S 710 mmHg 92%
    01:00 +23°C° 0 mm 1 m/S 709 mmHg 92%
    02:00 +22°C° 0 mm 1 m/S 709 mmHg 92%
    03:00 +22°C° 0 mm 1 m/S 709 mmHg 92%
    04:00 +22°C° 0 mm 1 m/S 709 mmHg 92%
    05:00 +23°C° 0 mm 1 m/S 710 mmHg 89%
    06:00 +24°C° 0 mm 1 m/S 710 mmHg 87%
    07:00 +24°C° 0 mm 1 m/S 711 mmHg 85%
    08:00 +26°C° 0 mm 1 m/S 711 mmHg 77%
    09:00 +28°C° 0 mm 1 m/S 711 mmHg 69%
    10:00 +30°C° 0 mm 1 m/S 712 mmHg 61%
    11:00 +30°C° 0.1 mm 1 m/S 711 mmHg 61%
    12:00 +30°C° 0.1 mm 1 m/S 710 mmHg 61%
    13:00 +30°C° 0.1 mm 1 m/S 709 mmHg 61%
    14:00 +29°C° 0.3 mm 1 m/S 709 mmHg 68%
    15:00 +28°C° 0.3 mm 2 m/S 708 mmHg 74%
    16:00 +27°C° 0.3 mm 2 m/S 708 mmHg 80%
    17:00 +26°C° 0.2 mm 2 m/S 708 mmHg 84%
    18:00 +25°C° 0.2 mm 1 m/S 709 mmHg 88%
    19:00 +24°C° 0.2 mm 1 m/S 709 mmHg 91%
    20:00 +24°C° 0 mm 1 m/S 709 mmHg 92%
    21:00 +24°C° 0 mm 1 m/S 709 mmHg 92%
    22:00 +23°C° 0 mm 1 m/S 710 mmHg 92%
    23:00 +23°C° 0 mm 1 m/S 709 mmHg 93%

    25 November, Montag

    Zeit Temperatur Niederschläge Wind Luftdruck Luftfeuchtigkeit
    00:00 +23°C° 0 mm 1 m/S 709 mmHg 93%
    01:00 +23°C° 0 mm 1 m/S 709 mmHg 93%
    02:00 +23°C° 0 mm 1 m/S 709 mmHg 93%
    03:00 +23°C° 0 mm 1 m/S 708 mmHg 93%
    04:00 +23°C° 0 mm 1 m/S 708 mmHg 92%
    05:00 +22°C° 0 mm 0 m/S 709 mmHg 90%
    06:00 +22°C° 0 mm 0 m/S 709 mmHg 88%
    07:00 +23°C° 0 mm 0 m/S 710 mmHg 85%
    08:00 +27°C° 0 mm 1 m/S 710 mmHg 79%
    09:00 +28°C° 0 mm 1 m/S 711 mmHg 73%
    10:00 +30°C° 0 mm 1 m/S 711 mmHg 66%
    11:00 +30°C° 0.4 mm 1 m/S 710 mmHg 66%
    12:00 +30°C° 0.4 mm 1 m/S 709 mmHg 66%
    13:00 +30°C° 0.4 mm 1 m/S 708 mmHg 66%
    14:00 +30°C° 0.5 mm 1 m/S 708 mmHg 70%
    15:00 +29°C° 0.5 mm 1 m/S 708 mmHg 75%
    16:00 +28°C° 0.5 mm 1 m/S 708 mmHg 79%
    17:00 +27°C° 0.2 mm 1 m/S 708 mmHg 83%
    18:00 +26°C° 0.2 mm 1 m/S 708 mmHg 87%
    19:00 +25°C° 0.2 mm 1 m/S 709 mmHg 91%
    20:00 +24°C° 0 mm 1 m/S 709 mmHg 91%
    21:00 +24°C° 0 mm 1 m/S 709 mmHg 91%
    22:00 +22°C° 0 mm 0 m/S 709 mmHg 91%
    23:00 +22°C° 0 mm 0 m/S 709 mmHg 90%

    26 November, Dienstag

    Zeit Temperatur Niederschläge Wind Luftdruck Luftfeuchtigkeit
    00:00 +22°C° 0 mm 0 m/S 709 mmHg 90%
    01:00 +21°C° 0 mm 0 m/S 708 mmHg 90%
    02:00 +21°C° 0 mm 0 m/S 708 mmHg 89%
    03:00 +23°C° 0 mm 1 m/S 708 mmHg 89%
    04:00 +23°C° 0 mm 1 m/S 708 mmHg 88%
    05:00 +22°C° 0 mm 0 m/S 709 mmHg 86%
    06:00 +23°C° 0 mm 0 m/S 710 mmHg 84%
    07:00 +23°C° 0 mm 0 m/S 710 mmHg 82%
    08:00 +27°C° 0.1 mm 1 m/S 711 mmHg 75%
    09:00 +29°C° 0.1 mm 1 m/S 711 mmHg 69%
    10:00 +30°C° 0.1 mm 1 m/S 712 mmHg 62%
    11:00 +30°C° 0.9 mm 1 m/S 711 mmHg 64%
    12:00 +30°C° 0.9 mm 1 m/S 710 mmHg 66%
    13:00 +30°C° 0.9 mm 2 m/S 709 mmHg 68%
    14:00 +30°C° 1 mm 1 m/S 709 mmHg 72%
    15:00 +29°C° 1 mm 1 m/S 709 mmHg 76%
    16:00 +28°C° 1 mm 1 m/S 708 mmHg 80%
    17:00 +27°C° 0.7 mm 1 m/S 709 mmHg 83%
    18:00 +26°C° 0.7 mm 1 m/S 709 mmHg 85%
    19:00 +25°C° 0.7 mm 1 m/S 710 mmHg 88%
    20:00 +25°C° 0.5 mm 1 m/S 710 mmHg 87%
    21:00 +25°C° 0.5 mm 1 m/S 710 mmHg 87%
    22:00 +25°C° 0.5 mm 1 m/S 710 mmHg 87%
    23:00 +25°C° 0 mm 1 m/S 710 mmHg 87%

    27 November, Mittwoch

    Zeit Temperatur Niederschläge Wind Luftdruck Luftfeuchtigkeit
    00:00 +24°C° 0 mm 1 m/S 710 mmHg 86%
    01:00 +22°C° 0 mm 0 m/S 709 mmHg 86%
    02:00 +22°C° 0.1 mm 0 m/S 709 mmHg 86%
    03:00 +22°C° 0.1 mm 0 m/S 709 mmHg 86%
    04:00 +22°C° 0.1 mm 0 m/S 709 mmHg 86%
    05:00 +22°C° 0 mm 0 m/S 710 mmHg 86%
    06:00 +23°C° 0 mm 0 m/S 710 mmHg 85%
    07:00 +23°C° 0 mm 0 m/S 711 mmHg 84%
    08:00 +25°C° 0 mm 0 m/S 711 mmHg 77%
    09:00 +29°C° 0 mm 1 m/S 711 mmHg 70%
    10:00 +31°C° 0 mm 1 m/S 712 mmHg 64%
    11:00 +30°C° 0.9 mm 1 m/S 711 mmHg 66%
    12:00 +30°C° 0.9 mm 1 m/S 710 mmHg 69%
    13:00 +30°C° 0.9 mm 1 m/S 710 mmHg 72%
    14:00 +29°C° 0.9 mm 1 m/S 709 mmHg 75%
    15:00 +29°C° 0.9 mm 1 m/S 709 mmHg 78%
    16:00 +28°C° 0.9 mm 1 m/S 709 mmHg 81%
    17:00 +27°C° 0.5 mm 1 m/S 709 mmHg 84%
    18:00 +26°C° 0.5 mm 1 m/S 710 mmHg 87%
    19:00 +25°C° 0.5 mm 1 m/S 710 mmHg 90%
    20:00 +25°C° 0.1 mm 1 m/S 710 mmHg 90%
    21:00 +24°C° 0.1 mm 1 m/S 710 mmHg 91%
    22:00 +24°C° 0.1 mm 1 m/S 711 mmHg 91%
    23:00 +24°C° 0 mm 1 m/S 710 mmHg 91%
    Mehr zeigen